Location: Gleizolles
(44.4833°N, 6.7667°E)
Time: 22:08:48
(UTC+00:00)

Tiros 1 despin weight - Pass Details

Date: 02 July 2024
Orbit: 576 x 620 km, 48.2° (Epoch: 19 July)

Event Time Altitude Azimuth Distance (km) Brightness Sun altitude
Rises 06:15:34 0° 186° (S) 2,833 ? 22.5°
Reaches altitude 10° 06:19:11 10° 156° (SSE) 1,947 ? 23.2°
Maximum altitude 06:20:56 12° 132° (SE) 1,816 ? 23.5°
Drops below altitude 10° 06:22:42 10° 109° (ESE) 1,962 ? 23.8°
Sets 06:26:22 0° 79° (E) 2,882 ? 24.4°
